Zurück zum Katalog

YUNYAO-1 59

AktivWetterSSO
NORAD 63295·PAYLOAD·🇨🇳 China
Dieser Satellitenname wurde noch nicht durch offizielle Quellen bestätigt.

Gestartet Mar 17, 2025 von Jiuquan Satellite Launch Center

Loading…

Nächste Überflüge (nächste 24 Stunden)

TLE

AktuellSource: Space-Track

Epoche: Sep 14, 2026, 15:20 UTC

1 63295U 25055E   26257.63917692  .00006377  00000-0  35127-3 0  9991
2 63295  97.6626  37.8304 0023483 145.8955 214.3790 15.14139990 82542

Verfolge YUNYAO-1 59 in Echtzeit mit AllMySat

Download on the App Store